Time,TemperatureF,DewpointF,PressureIn,WindDirection,WindDirectionDegrees,WindSpeedMPH,WindSpeedGustMPH,Humidity,HourlyPrecipIn,Conditions,Clouds,dailyrainin,SolarRadiationWatts/m^2,SoftwareType,DateUTC
2013-02-08 00:21:00,32.0,32.0,-100.00,South,170,0.0,0.0,100,0.00,,,0.00,0.000000,,2013-02-08 08:21:00,
2013-02-08 00:32:00,32.0,32.0,-100.00,South,170,0.0,0.0,100,0.00,,,0.00,0.000000,,2013-02-08 08:32:00,
2013-02-08 00:41:00,32.0,32.0,-100.00,South,170,0.0,0.0,100,0.00,,,0.00,0.000000,,2013-02-08 08:41:00,
2013-02-08 00:52:00,32.0,32.0,-100.00,South,170,0.0,0.0,100,0.00,,,0.00,0.000000,,2013-02-08 08:52:00,
2013-02-08 01:21:00,33.0,33.0,-100.00,NNE,12,0.0,0.0,100,0.00,,,0.00,0.000000,,2013-02-08 09:21:00,
2013-02-08 01:31:00,33.0,33.0,-100.00,NNE,12,0.0,0.0,100,0.00,,,0.00,0.000000,,2013-02-08 09:31:00,
2013-02-08 01:42:00,33.0,33.0,-100.00,NNE,12,0.0,0.0,100,0.00,,,0.00,0.000000,,2013-02-08 09:42:00,
2013-02-08 01:51:00,33.0,33.0,-100.00,NNE,12,0.0,0.0,100,0.00,,,0.00,0.000000,,2013-02-08 09:51:00,
2013-02-08 02:22:00,32.0,32.0,-100.00,West,264,2.0,5.0,100,0.00,,,0.00,0.000000,,2013-02-08 10:22:00,
2013-02-08 02:31:00,32.0,32.0,-100.00,West,264,2.0,5.0,100,0.00,,,0.00,0.000000,,2013-02-08 10:31:00,
2013-02-08 02:41:00,32.0,32.0,-100.00,West,264,2.0,5.0,100,0.00,,,0.00,0.000000,,2013-02-08 10:41:00,
2013-02-08 02:51:00,32.0,32.0,-100.00,West,264,2.0,5.0,100,0.00,,,0.00,0.000000,,2013-02-08 10:51:00,
2013-02-08 03:32:00,31.0,31.0,-100.00,ENE,64,0.0,6.0,100,0.00,,,0.00,0.000000,,2013-02-08 11:32:00,
2013-02-08 03:41:00,31.0,31.0,-100.00,ENE,64,0.0,6.0,100,0.00,,,0.00,0.000000,,2013-02-08 11:41:00,
2013-02-08 03:52:00,31.0,31.0,-100.00,ENE,64,0.0,6.0,100,0.00,,,0.00,0.000000,,2013-02-08 11:52:00,
2013-02-08 04:22:00,31.0,31.0,-100.00,NW,311,0.0,4.0,100,0.00,,,0.00,0.000000,,2013-02-08 12:22:00,
2013-02-08 04:32:00,31.0,31.0,-100.00,NW,311,0.0,4.0,100,0.00,,,0.00,0.000000,,2013-02-08 12:32:00,
2013-02-08 04:42:00,31.0,31.0,-100.00,NW,311,0.0,4.0,100,0.00,,,0.00,0.000000,,2013-02-08 12:42:00,
2013-02-08 04:52:00,31.0,31.0,-100.00,NW,311,0.0,4.0,100,0.00,,,0.00,0.000000,,2013-02-08 12:52:00,
2013-02-08 05:21:00,31.0,31.0,-100.00,WNW,285,0.0,4.0,100,0.00,,,0.00,0.000000,,2013-02-08 13:21:00,
2013-02-08 05:32:00,31.0,31.0,-100.00,WNW,285,0.0,4.0,100,0.00,,,0.00,0.000000,,2013-02-08 13:32:00,
2013-02-08 05:42:00,31.0,31.0,-100.00,WNW,285,0.0,4.0,100,0.00,,,0.00,0.000000,,2013-02-08 13:42:00,
2013-02-08 05:51:00,31.0,31.0,-100.00,WNW,285,0.0,4.0,100,0.00,,,0.00,0.000000,,2013-02-08 13:51:00,
2013-02-08 06:21:00,31.0,31.0,-100.00,West,268,0.0,8.0,100,0.00,,,0.00,0.000000,,2013-02-08 14:21:00,
2013-02-08 06:32:00,31.0,31.0,-100.00,West,268,0.0,8.0,100,0.00,,,0.00,0.000000,,2013-02-08 14:32:00,
2013-02-08 06:41:00,31.0,31.0,-100.00,West,268,0.0,8.0,100,0.00,,,0.00,0.000000,,2013-02-08 14:41:00,
2013-02-08 06:52:00,31.0,31.0,-100.00,West,268,0.0,8.0,100,0.00,,,0.00,0.000000,,2013-02-08 14:52:00,
2013-02-08 07:21:00,32.0,32.0,-100.00,NNW,330,0.0,4.0,100,0.00,,,0.00,0.000000,,2013-02-08 15:21:00,
2013-02-08 07:32:00,32.0,32.0,-100.00,NNW,330,0.0,4.0,100,0.00,,,0.00,0.000000,,2013-02-08 15:32:00,
2013-02-08 07:41:00,32.0,32.0,-100.00,NNW,330,0.0,4.0,100,0.00,,,0.00,0.000000,,2013-02-08 15:41:00,
2013-02-08 07:51:00,32.0,32.0,-100.00,NNW,330,0.0,4.0,100,0.00,,,0.00,0.000000,,2013-02-08 15:51:00,
2013-02-08 08:21:00,32.0,32.0,-100.00,West,261,0.0,0.0,100,0.00,,,0.00,1.000000,,2013-02-08 16:21:00,
2013-02-08 08:32:00,32.0,32.0,-100.00,West,261,0.0,0.0,100,0.00,,,0.00,1.000000,,2013-02-08 16:32:00,
2013-02-08 08:41:00,32.0,32.0,-100.00,West,261,0.0,0.0,100,0.00,,,0.00,1.000000,,2013-02-08 16:41:00,
2013-02-08 08:51:00,32.0,32.0,-100.00,West,261,0.0,0.0,100,0.00,,,0.00,1.000000,,2013-02-08 16:51:00,
2013-02-08 09:22:00,33.0,33.0,-100.00,NW,314,0.0,4.0,100,0.00,,,0.00,8.000000,,2013-02-08 17:22:00,
2013-02-08 09:32:00,33.0,33.0,-100.00,NW,314,0.0,4.0,100,0.00,,,0.00,8.000000,,2013-02-08 17:32:00,
2013-02-08 09:42:00,33.0,33.0,-100.00,NW,314,0.0,4.0,100,0.00,,,0.00,8.000000,,2013-02-08 17:42:00,
2013-02-08 09:52:00,33.0,33.0,-100.00,NW,314,0.0,4.0,100,0.00,,,0.00,8.000000,,2013-02-08 17:52:00,
2013-02-08 10:24:00,33.0,33.0,-100.00,WNW,302,0.0,3.0,100,0.00,,,0.00,11.000000,,2013-02-08 18:24:00,
2013-02-08 10:34:00,33.0,33.0,-100.00,WNW,302,0.0,3.0,100,0.00,,,0.00,11.000000,,2013-02-08 18:34:00,
2013-02-08 10:43:00,33.0,33.0,-100.00,WNW,302,0.0,3.0,100,0.00,,,0.00,11.000000,,2013-02-08 18:43:00,
2013-02-08 10:52:00,33.0,33.0,-100.00,WNW,302,0.0,3.0,100,0.00,,,0.00,11.000000,,2013-02-08 18:52:00,
2013-02-08 11:22:00,38.0,38.0,-100.00,NNW,330,0.0,4.0,99,0.00,,,0.00,38.000000,,2013-02-08 19:22:00,
2013-02-08 11:42:00,38.0,38.0,-100.00,NNW,330,0.0,4.0,99,0.00,,,0.00,38.000000,,2013-02-08 19:42:00,
2013-02-08 11:52:00,38.0,38.0,-100.00,NNW,330,0.0,4.0,99,0.00,,,0.00,38.000000,,2013-02-08 19:52:00,
2013-02-08 12:21:00,36.0,36.0,-100.00,WNW,301,1.0,5.0,100,0.00,,,0.00,42.000000,,2013-02-08 20:21:00,
2013-02-08 12:31:00,36.0,36.0,-100.00,WNW,301,1.0,5.0,100,0.00,,,0.00,42.000000,,2013-02-08 20:31:00,
2013-02-08 12:41:00,36.0,36.0,-100.00,WNW,301,1.0,5.0,100,0.00,,,0.00,42.000000,,2013-02-08 20:41:00,
2013-02-08 12:52:00,36.0,36.0,-100.00,WNW,301,1.0,5.0,100,0.00,,,0.00,42.000000,,2013-02-08 20:52:00,
2013-02-08 13:21:00,36.0,36.0,-100.00,NW,304,2.0,8.0,99,0.00,,,0.00,205.000000,,2013-02-08 21:21:00,
2013-02-08 13:32:00,36.0,36.0,-100.00,NW,304,2.0,8.0,99,0.00,,,0.00,205.000000,,2013-02-08 21:32:00,
2013-02-08 13:42:00,36.0,36.0,-100.00,NW,304,2.0,8.0,99,0.00,,,0.00,205.000000,,2013-02-08 21:42:00,
2013-02-08 13:52:00,36.0,36.0,-100.00,NW,304,2.0,8.0,99,0.00,,,0.00,205.000000,,2013-02-08 21:52:00,
2013-02-08 14:21:00,36.0,36.0,-100.00,West,274,2.0,7.0,100,0.00,,,0.00,259.000000,,2013-02-08 22:21:00,
2013-02-08 14:32:00,36.0,36.0,-100.00,West,274,2.0,7.0,100,0.00,,,0.00,259.000000,,2013-02-08 22:32:00,
2013-02-08 14:42:00,36.0,36.0,-100.00,West,274,2.0,7.0,100,0.00,,,0.00,259.000000,,2013-02-08 22:42:00,
2013-02-08 14:51:00,36.0,36.0,-100.00,West,274,2.0,7.0,100,0.00,,,0.00,259.000000,,2013-02-08 22:51:00,
2013-02-08 15:21:00,37.0,37.0,-100.00,WSW,238,2.0,7.0,99,0.00,,,0.00,282.000000,,2013-02-08 23:21:00,
2013-02-08 15:31:00,37.0,37.0,-100.00,WSW,238,2.0,7.0,99,0.00,,,0.00,282.000000,,2013-02-08 23:31:00,
2013-02-08 15:41:00,37.0,37.0,-100.00,WSW,238,2.0,7.0,99,0.00,,,0.00,282.000000,,2013-02-08 23:41:00,
2013-02-08 15:52:00,37.0,37.0,-100.00,WSW,238,2.0,7.0,99,0.00,,,0.00,282.000000,,2013-02-08 23:52:00,
2013-02-08 16:21:00,33.0,33.0,-100.00,West,265,3.0,7.0,99,0.00,,,0.00,258.000000,,2013-02-09 00:21:00,
2013-02-08 16:32:00,33.0,33.0,-100.00,West,265,3.0,7.0,99,0.00,,,0.00,258.000000,,2013-02-09 00:32:00,
2013-02-08 16:42:00,33.0,33.0,-100.00,West,265,3.0,7.0,99,0.00,,,0.00,258.000000,,2013-02-09 00:42:00,
2013-02-08 16:52:00,33.0,33.0,-100.00,West,265,3.0,7.0,99,0.00,,,0.00,258.000000,,2013-02-09 00:52:00,
2013-02-08 17:21:00,33.0,33.0,-100.00,West,266,4.0,8.0,100,0.00,,,-99.99,50.000000,,2013-02-09 01:21:00,
2013-02-08 17:31:00,33.0,33.0,-100.00,West,266,4.0,8.0,100,0.00,,,-99.99,50.000000,,2013-02-09 01:31:00,
2013-02-08 17:41:00,33.0,33.0,-100.00,West,266,4.0,8.0,100,0.00,,,-99.99,50.000000,,2013-02-09 01:41:00,
2013-02-08 17:52:00,33.0,33.0,-100.00,West,266,4.0,8.0,100,0.00,,,-99.99,50.000000,,2013-02-09 01:52:00,
2013-02-08 18:21:00,32.0,32.0,-100.00,WSW,252,2.0,8.0,100,0.00,,,0.00,10.000000,,2013-02-09 02:21:00,
2013-02-08 18:32:00,32.0,32.0,-100.00,WSW,252,2.0,8.0,100,0.00,,,0.00,10.000000,,2013-02-09 02:32:00,
2013-02-08 18:41:00,32.0,32.0,-100.00,WSW,252,2.0,8.0,100,0.00,,,0.00,10.000000,,2013-02-09 02:41:00,
2013-02-08 18:52:00,32.0,32.0,-100.00,WSW,252,2.0,8.0,100,0.00,,,0.00,10.000000,,2013-02-09 02:52:00,
2013-02-08 19:21:00,31.0,31.0,-100.00,West,273,1.0,8.0,100,0.00,,,0.00,0.000000,,2013-02-09 03:21:00,
2013-02-08 19:32:00,31.0,31.0,-100.00,West,273,1.0,8.0,100,0.00,,,0.00,0.000000,,2013-02-09 03:32:00,
2013-02-08 19:41:00,31.0,31.0,-100.00,West,273,1.0,8.0,100,0.00,,,0.00,0.000000,,2013-02-09 03:41:00,
2013-02-08 19:52:00,31.0,31.0,-100.00,West,273,1.0,8.0,100,0.00,,,0.00,0.000000,,2013-02-09 03:52:00,
2013-02-08 20:22:00,31.0,31.0,-100.00,WNW,284,0.0,5.0,100,0.00,,,0.00,0.000000,,2013-02-09 04:22:00,
2013-02-08 20:32:00,31.0,31.0,-100.00,WNW,284,0.0,5.0,100,0.00,,,0.00,0.000000,,2013-02-09 04:32:00,
2013-02-08 20:42:00,31.0,31.0,-100.00,WNW,284,0.0,5.0,100,0.00,,,0.00,0.000000,,2013-02-09 04:42:00,
2013-02-08 20:51:00,31.0,31.0,-100.00,WNW,284,0.0,5.0,100,0.00,,,0.00,0.000000,,2013-02-09 04:51:00,
2013-02-08 21:22:00,32.0,32.0,-100.00,South,169,0.0,3.0,100,0.00,,,0.00,0.000000,,2013-02-09 05:22:00,
2013-02-08 21:31:00,32.0,32.0,-100.00,South,169,0.0,3.0,100,0.00,,,0.00,0.000000,,2013-02-09 05:31:00,
2013-02-08 21:41:00,32.0,32.0,-100.00,South,169,0.0,3.0,100,0.00,,,0.00,0.000000,,2013-02-09 05:41:00,
2013-02-08 21:52:00,32.0,32.0,-100.00,South,169,0.0,3.0,100,0.00,,,0.00,0.000000,,2013-02-09 05:52:00,
2013-02-08 22:21:00,32.0,32.0,-100.00,WNW,295,0.0,2.0,100,0.00,,,0.00,0.000000,,2013-02-09 06:21:00,
2013-02-08 22:31:00,32.0,32.0,-100.00,WNW,295,0.0,2.0,100,0.00,,,0.00,0.000000,,2013-02-09 06:31:00,
2013-02-08 22:41:00,32.0,32.0,-100.00,WNW,295,0.0,2.0,100,0.00,,,0.00,0.000000,,2013-02-09 06:41:00,
2013-02-08 22:51:00,32.0,32.0,-100.00,WNW,295,0.0,2.0,100,0.00,,,0.00,0.000000,,2013-02-09 06:51:00,
2013-02-08 23:21:00,31.0,31.0,-100.00,West,281,1.0,4.0,100,0.00,,,0.00,0.000000,,2013-02-09 07:21:00,
2013-02-08 23:31:00,31.0,31.0,-100.00,West,281,1.0,4.0,100,0.00,,,0.00,0.000000,,2013-02-09 07:31:00,
2013-02-08 23:42:00,31.0,31.0,-100.00,West,281,1.0,4.0,100,0.00,,,0.00,0.000000,,2013-02-09 07:42:00,
2013-02-08 23:51:00,31.0,31.0,-100.00,West,281,1.0,4.0,100,0.00,,,0.00,0.000000,,2013-02-09 07:51:00,